W8AN Weather Reports


time (UTC)temp
F
wind
direction
speed
knots
gust
knots
rain 1hr
in
rain 24hr
in
rain mn
in
humidity
%
barometer
mb
20260503233058 53 238 7.0 7.8 0.00 0.00 0.00 62 4267.0
20260503232556 53 226 6.1 7.8 0.00 0.00 0.00 63 4266.8
20260503232053 53 192 7.8 9.6 0.00 0.00 0.00 62 4266.9
20260503231551 53 230 10.4 13.0 0.00 0.00 0.00 62 4267.0
20260503231047 54 212 9.6 13.0 0.00 0.00 0.00 62 4267.1
20260503230544 54 239 13.9 17.4 0.00 0.00 0.00 60 4266.8
20260503230042 54 224 9.6 11.3 0.00 0.00 0.00 62 4266.9
20260503225538 55 243 9.6 12.2 0.00 0.00 0.00 61 4267.1
20260503225033 55 248 13.9 18.2 0.00 0.00 0.00 59 4267.0
20260503224531 56 251 13.0 15.6 0.00 0.00 0.00 58 4266.7
20260503224029 57 228 13.0 15.6 0.00 0.00 0.00 58 4266.7
20260503223526 57 232 13.0 13.9 0.00 0.00 0.00 55 4266.7
20260503223022 58 243 12.2 15.6 0.00 0.00 0.00 54 4266.5
20260503222520 58 250 19.1 22.6 0.00 0.00 0.00 52 4266.3
20260503222018 59 220 16.5 21.7 0.00 0.00 0.00 51 4266.5
20260503221516 60 234 17.4 20.0 0.00 0.00 0.00 47 4266.3
20260503221013 60 231 13.0 14.8 0.00 0.00 0.00 39 4266.3
20260503220509 61 233 8.7 11.3 0.00 0.00 0.00 38 4266.3
20260503220006 61 219 12.2 13.0 0.00 0.00 0.00 38 4266.3
20260503215503 60 205 13.0 20.9 0.00 0.00 0.00 38 4266.0
20260503215000 60 226 14.8 19.1 0.00 0.00 0.00 38 4266.2
20260503214458 60 214 8.7 9.6 0.00 0.00 0.00 37 4266.3
20260503213955 61 205 10.4 13.0 0.00 0.00 0.00 38 4266.3
20260503213453 61 243 13.0 14.8 0.00 0.00 0.00 36 4266.2
20260503212949 61 234 14.8 14.8 0.00 0.00 0.00 37 4266.5
20260503212447 61 206 11.3 13.9 0.00 0.00 0.00 37 4266.1
20260503211944 61 235 13.9 17.4 0.00 0.00 0.00 36 4266.4
20260503211441 61 222 12.2 15.6 0.00 0.00 0.00 36 4266.1
20260503210936 61 228 15.6 21.7 0.00 0.00 0.00 36 4266.4
20260503210433 61 221 13.9 17.4 0.00 0.00 0.00 35 4266.5
20260503205928 61 226 11.3 17.4 0.00 0.00 0.00 37 4266.5
20260503205426 61 204 10.4 13.9 0.00 0.00 0.00 39 4266.4
20260503204921 61 229 14.8 20.9 0.00 0.00 0.00 35 4266.6
20260503204419 62 248 12.2 17.4 0.00 0.00 0.00 37 4266.8
20260503203916 62 264 14.8 17.4 0.00 0.00 0.00 36 4266.8
20260503203413 61 239 14.8 18.2 0.00 0.00 0.00 35 4267.0
20260503202910 62 224 19.1 23.5 0.00 0.00 0.00 33 4266.9
20260503202409 61 226 11.3 13.9 0.00 0.00 0.00 36 4266.7
20260503201907 61 235 9.6 12.2 0.00 0.00 0.00 38 4266.7
20260503201403 61 220 16.5 18.2 0.00 0.00 0.00 36 4266.8
20260503200901 61 218 15.6 18.2 0.00 0.00 0.00 35 4266.8
20260503200356 62 226 14.8 19.1 0.00 0.00 0.00 34 4267.0
20260503195854 63 234 11.3 13.9 0.00 0.00 0.00 37 4266.9
20260503195350 63 235 13.0 15.6 0.00 0.00 0.00 34 4267.1
20260503194848 62 260 8.7 11.3 0.00 0.00 0.00 37 4267.1
20260503194343 62 238 7.0 8.7 0.00 0.00 0.00 36 4267.0
20260503193840 62 220 13.0 17.4 0.00 0.00 0.00 34 4267.4
20260503193336 62 219 13.0 15.6 0.00 0.00 0.00 34 4267.3
20260503192832 62 217 12.2 14.8 0.00 0.00 0.00 35 4267.3
20260503192327 61 225 14.8 20.0 0.00 0.00 0.00 34 4267.3
20260503191824 61 235 11.3 13.0 0.00 0.00 0.00 34 4267.5
20260503191321 61 245 15.6 17.4 0.00 0.00 0.00 36 4267.5
20260503190818 61 247 20.9 26.1 0.00 0.00 0.00 36 4267.7
20260503190315 62 219 16.5 19.1 0.00 0.00 0.00 36 4267.8
20260503185812 61 222 13.9 17.4 0.00 0.00 0.00 35 4268.0
20260503185308 62 225 10.4 13.0 0.00 0.00 0.00 37 4267.9
20260503184808 61 238 11.3 14.8 0.00 0.00 0.00 35 4268.0
20260503184304 61 234 13.0 15.6 0.00 0.00 0.00 36 4267.9
20260503183800 61 255 13.9 17.4 0.00 0.00 0.00 35 4268.0
20260503183258 61 221 15.6 20.0 0.00 0.00 0.00 34 4268.0
20260503182755 61 214 11.3 13.0 0.00 0.00 0.00 37 4268.3
20260503182254 60 214 13.0 14.8 0.00 0.00 0.00 35 4268.2
20260503181750 60 227 13.9 20.0 0.00 0.00 0.00 36 4268.3
20260503181248 61 224 16.5 20.0 0.00 0.00 0.00 36 4268.6
20260503180744 61 258 11.3 17.4 0.00 0.00 0.00 33 4268.3
20260503180242 61 223 8.7 9.6 0.00 0.00 0.00 35 4268.5
20260503175738 61 286 7.8 11.3 0.00 0.00 0.00 36 4268.4
20260503175237 61 215 14.8 19.1 0.00 0.00 0.00 36 4268.6
20260503174732 60 223 13.0 18.2 0.00 0.00 0.00 34 4268.6
20260503174231 61 233 12.2 13.0 0.00 0.00 0.00 38 4268.7
20260503173730 61 235 11.3 12.2 0.00 0.00 0.00 39 4268.9
20260503173227 60 235 13.0 18.2 0.00 0.00 0.00 35 4268.7
20260503172724 60 234 13.0 17.4 0.00 0.00 0.00 37 4269.0
20260503172221 60 256 11.3 13.0 0.00 0.00 0.00 38 4268.8
20260503171717 60 285 9.6 13.0 0.00 0.00 0.00 37 4268.9
20260503171215 60 235 10.4 13.0 0.00 0.00 0.00 38 4269.0
20260503170712 60 256 22.6 26.9 0.00 0.00 0.00 37 4269.2
20260503170208 60 219 18.2 22.6 0.00 0.00 0.00 39 4269.0
20260503160130 57 228 9.6 12.2 0.00 0.00 0.00 49 4269.9
20260503150600 54 225 9.6 12.2 0.00 0.00 0.00 51 4270.4
20260503130943 47 218 13.0 14.8 0.00 0.00 0.00 59 4270.9
20260503130441 47 246 10.4 13.0 0.00 0.00 0.00 59 4270.9
20260503110338 37 229 0.0 0.0 0.00 0.00 0.00 71 4270.8
20260503090218 36 227 3.5 4.3 0.00 0.00 0.00 73 4271.0
20260503081145 36 209 4.3 4.3 0.00 0.00 0.00 74 4271.3
20260503080641 36 209 5.2 6.1 0.00 0.00 0.00 74 4271.4
20260503080138 36 209 4.3 6.1 0.00 0.00 0.00 74 4271.4
20260503072615 36 221 2.6 2.6 0.00 0.00 0.00 74 4271.2
20260503072112 36 215 0.0 0.0 0.00 0.00 0.00 74 4271.4
20260503071608 36 220 0.0 0.0 0.00 0.00 0.00 75 4271.5
20260503071105 36 228 0.0 0.0 0.00 0.00 0.00 75 4271.5
20260503070602 36 226 0.0 0.0 0.00 0.00 0.00 75 4271.4
20260503055021 37 242 0.0 0.0 0.00 0.00 0.00 73 4271.7
20260503054517 37 241 0.0 0.0 0.00 0.00 0.00 73 4271.7
20260503054014 37 235 0.0 0.0 0.00 0.00 0.00 73 4271.7
20260503053512 37 252 0.0 0.0 0.00 0.00 0.00 73 4271.9
20260503053010 38 250 0.0 0.0 0.00 0.00 0.00 73 4271.7
20260503052506 38 247 0.0 0.0 0.00 0.00 0.00 72 4271.8
20260503052003 38 244 0.0 0.0 0.00 0.00 0.00 72 4271.6
20260503051458 38 241 0.0 0.0 0.00 0.00 0.00 71 4271.9
20260503050956 39 225 0.0 0.0 0.00 0.00 0.00 70 4271.8
20260503050451 39 228 0.0 0.0 0.00 0.00 0.00 69 4272.0
20260503045949 39 223 0.0 0.0 0.00 0.00 0.00 68 4271.8
20260503045446 39 220 0.0 0.0 0.00 0.00 0.00 68 4272.0
20260503044943 40 218 0.0 0.0 0.00 0.00 0.00 68 4271.9
20260503044440 39 222 0.0 0.0 0.00 0.00 0.00 71 4271.8
20260503043937 40 233 0.0 0.0 0.00 0.00 0.00 68 4271.9
20260503043433 40 243 0.0 0.0 0.00 0.00 0.00 70 4271.8
20260503042930 40 240 0.0 0.0 0.00 0.00 0.00 70 4271.7
20260503042427 39 242 0.0 0.0 0.00 0.00 0.00 72 4271.6
20260503041924 40 233 0.0 0.0 0.00 0.00 0.00 68 4271.8
20260503041420 41 220 0.0 0.0 0.00 0.00 0.00 66 4271.5
20260503040918 41 222 0.0 0.0 0.00 0.00 0.00 66 4271.5
20260503040415 41 228 0.0 0.0 0.00 0.00 0.00 66 4271.8
20260503035913 41 231 0.0 0.0 0.00 0.00 0.00 66 4271.8
20260503035409 41 237 0.0 0.0 0.00 0.00 0.00 67 4271.8
20260503034906 40 261 0.0 0.0 0.00 0.00 0.00 69 4271.9
20260503034404 41 252 0.0 0.0 0.00 0.00 0.00 68 4271.9
20260503033901 41 241 0.0 0.0 0.00 0.00 0.00 66 4271.7
20260503033358 42 245 0.0 0.0 0.00 0.00 0.00 66 4271.8
20260503032856 42 246 0.0 0.0 0.00 0.00 0.00 65 4271.7
20260503032354 42 261 0.0 0.0 0.00 0.00 0.00 66 4272.0
20260503031852 42 261 0.0 0.0 0.00 0.00 0.00 65 4272.0
20260503031349 42 257 0.0 0.0 0.00 0.00 0.00 64 4271.7
20260503030845 42 261 0.0 0.0 0.00 0.00 0.00 65 4271.6
20260503030342 42 255 0.0 0.0 0.00 0.00 0.00 65 4271.9
20260503025838 42 255 0.0 0.0 0.00 0.00 0.00 65 4271.7
20260503025336 43 263 0.0 0.0 0.00 0.00 0.00 64 4271.7
20260503024833 43 262 0.0 0.0 0.00 0.00 0.00 65 4271.9
20260503024330 43 252 0.0 0.0 0.00 0.00 0.00 62 4271.8
20260503023826 43 273 0.0 0.0 0.00 0.00 0.00 65 4272.0
20260503023324 43 276 0.0 0.0 0.00 0.00 0.00 65 4271.9
20260503022820 43 272 0.0 0.0 0.00 0.00 0.00 63 4272.0
20260503022314 43 272 0.0 0.0 0.00 0.00 0.00 65 4271.8
20260503021811 43 277 0.0 0.0 0.00 0.00 0.00 66 4272.0
20260503021308 43 274 0.0 0.0 0.00 0.00 0.00 64 4271.6
20260503020805 43 274 0.0 0.0 0.00 0.00 0.00 65 4272.0
20260503020303 43 272 0.0 0.0 0.00 0.00 0.00 69 4272.0
20260503015759 43 286 0.0 0.0 0.00 0.00 0.00 70 4271.7
20260503015256 43 286 0.0 0.0 0.00 0.00 0.00 68 4271.7
20260503014751 44 286 0.0 0.0 0.00 0.00 0.00 69 4271.7
20260503014250 44 285 0.0 0.0 0.00 0.00 0.00 69 4271.6
20260503013747 44 282 0.0 0.0 0.00 0.00 0.00 68 4271.8
20260503013244 44 286 0.0 0.0 0.00 0.00 0.00 60 4271.8
20260503012741 44 286 0.0 0.0 0.00 0.00 0.00 61 4271.5
20260503012239 45 285 0.0 0.0 0.00 0.00 0.00 60 4271.6
20260503011735 45 284 0.0 0.0 0.00 0.00 0.00 54 4271.7
20260503011232 45 282 0.0 0.0 0.00 0.00 0.00 53 4271.8
20260503010728 45 280 0.0 0.0 0.00 0.00 0.00 53 4271.8
20260503010225 45 278 0.0 0.0 0.00 0.00 0.00 54 4271.4
20260503005723 45 274 0.0 0.0 0.00 0.00 0.00 56 4271.6
20260503005220 45 286 0.0 0.0 0.00 0.00 0.00 56 4271.6
20260503004716 45 287 0.0 0.0 0.00 0.00 0.00 54 4271.5
20260503004215 45 287 0.0 0.0 0.00 0.00 0.00 55 4271.3
20260503003711 46 287 0.0 0.0 0.00 0.00 0.00 55 4271.6
20260503003208 46 287 0.0 0.0 0.00 0.00 0.00 56 4271.7
20260503002705 46 284 0.0 0.0 0.00 0.00 0.00 59 4271.6
20260503002202 46 267 0.0 0.0 0.00 0.00 0.00 57 4271.5
20260503001657 47 259 0.0 0.0 0.00 0.00 0.00 51 4271.7
20260503001154 47 283 0.0 0.0 0.00 0.00 0.00 52 4271.5
20260503000652 47 257 0.0 0.0 0.00 0.00 0.00 51 4271.3
20260503000149 47 251 0.0 0.0 0.00 0.00 0.00 50 4271.5
20260502235646 47 278 1.7 2.6 0.00 0.00 0.00 52 4271.5
20260502235144 47 279 0.0 0.0 0.00 0.00 0.00 52 4271.4
20260502234640 47 309 0.0 0.0 0.00 0.00 0.00 49 4271.4
20260502234137 47 273 0.0 0.0 0.00 0.00 0.00 48 4271.6
20260502233633 47 291 0.0 0.9 0.00 0.00 0.00 47 4271.4